This demonstration page uses our WeatherBlox Daily Observations layout. Learn more.

Left ArrowRight Arrow

39.01783, -85.05884

Hourly Observations for February 5, 2021

Temp ( °F °C ) Dew Point ( °F °C ) Humidity (%) Winds ( mph kmh ) Pressure ( in mb ) Visibility ( mi km ) Precip ( " mm )
12:49 am 00:49 Cloudy 34 1 27 -3 75 75 W 23 37 29.66 1004 10 16 0.00 0.00
12:52 am 00:52 Cloudy 33 0.6 27 -2.8 78 78 W 16 26 29.63 1003 10 16 0.00 0.00
1:41 am 01:41 Cloudy 32 0 27 -2.8 82 82 WSW 15 24 29.69 1005 10 16 0.00 0.00
1:52 am 01:52 Cloudy 32 0 26 -3.3 79 79 W 24 39 29.66 1004 10 16 0.00 0.00
2:52 am 02:52 Cloudy 31 -0.6 24 -4.4 76 76 WSW 15 24 29.68 1005 10 16 0.00 0.00
3:13 am 03:13 Cloudy 31 -0.6 22 -5.6 69 69 W 17 28 29.74 1007 10 16 0.00 0.00
3:52 am 03:52 Cloudy 30 -1.1 21 -6.1 69 69 WSW 16 26 29.70 1006 10 16 0.00 0.00
4:52 am 04:52 Cloudy 29 -1.7 19 -7.2 66 66 W 25 41 29.73 1007 10 16 0.00 0.00
5:52 am 05:52 Cloudy 29 -1.7 19 -7.2 66 66 W 12 19 29.74 1007 10 16 0.00 0.00
6:52 am 06:52 Cloudy 28 -2.2 18 -7.8 66 66 WSW 14 22 29.76 1008 10 16 0.00 0.00
7:52 am 07:52 Partly Cloudy 26 -3.3 14 -10 60 60 W 20 31 29.78 1009 10 16 0.00 0.00
8:52 am 08:52 Mostly Sunny 27 -2.8 17 -8.3 66 66 WSW 15 24 29.80 1009 10 16 0.00 0.00
9:52 am 09:52 Mostly Sunny 29 -1.7 16 -8.9 58 58 WSW 16 26 29.81 1010 10 16 0.00 0.00
10:52 am 10:52 Mostly Sunny 30 -1.1 16 -8.9 56 56 WSW 12 19 29.81 1010 10 16 0.00 0.00
11:52 am 11:52 Partly Cloudy 33 0.6 18 -7.8 54 54 WSW 18 30 29.82 1010 10 16 0.00 0.00
12:52 pm 12:52 Mostly Cloudy 33 0.6 18 -7.8 54 54 WSW 21 33 29.82 1010 10 16 0.00 0.00
1:52 pm 13:52 Cloudy 33 0.6 19 -7.2 56 56 SW 16 26 29.81 1009 10 16 0.00 0.00
2:52 pm 14:52 Cloudy 35 1.7 20 -6.7 54 54 WSW 15 24 29.80 1009 10 16 0.00 0.00
3:52 pm 15:52 Partly Cloudy 36 2.2 20 -6.7 52 52 SW 15 24 29.78 1009 10 16 0.00 0.00
4:52 pm 16:52 Mostly Sunny 37 2.8 19 -7.2 48 48 WSW 16 26 29.79 1009 10 16 0.00 0.00
5:52 pm 17:52 Mostly Sunny 36 2.2 18 -7.8 48 48 WSW 13 20 29.80 1009 10 16 0.00 0.00
6:52 pm 18:52 Partly Cloudy 35 1.7 18 -7.8 50 50 WSW 9 15 29.82 1010 10 16 0.00 0.00
7:52 pm 19:52 Mostly Clear 34 1.1 19 -7.2 54 54 SW 10 17 29.84 1011 10 16 0.00 0.00
8:52 pm 20:52 Partly Cloudy 33 0.6 20 -6.7 58 58 SW 10 17 29.86 1011 10 16 0.00 0.00
9:52 pm 21:52 Mostly Cloudy 35 1.7 20 -6.7 54 54 WSW 10 17 29.87 1011 10 16 0.00 0.00
10:52 pm 22:52 Cloudy 35 1.7 22 -5.6 59 59 W 17 28 29.88 1012 10 16 0.00 0.00
11:52 pm 23:52 Cloudy 33 0.6 24 -4.4 70 70 W 15 24 29.91 1013 10 16 0.00 0.00

Powered by AerisWeather